Location: Bothwell
(42.3833°S, 147.0000°E)
Time: 19:29:25
(UTC+11:00)

CUBESAT XI-V - Pass Details

Date: 29 September 2022
Orbit: 666 x 689 km, 98.1° (Epoch: 25 November)

Event Time Altitude Azimuth Distance (km) Brightness Sun altitude
Rises 02:21:16 0° 161° (SSE) 3,087 ? -35.5°
Reaches altitude 10° 02:23:38 10° 154° (SSE) 2,166 ? -35.2°
Enters shadow 02:26:05 28° 136° (SE) 1,312 ? -34.9°
